Location: Tr�vern
(48.0333°N, 4.6000°W)
Time: 18:01:25
(UTC+00:00)

Cosmos 1500 - Pass Details

Date: 14 July 2020
Orbit: 498 x 520 km, 82.5° (Epoch: 13 August)

Event Time Altitude Azimuth Distance (km) Brightness Sun altitude
Exits shadow 02:33:28 27° 221° (SW) 1,015 4.1 -14.6°
Maximum altitude 02:35:14 49° 283° (WNW) 668 3.6 -14.4°
Drops below altitude 10° 02:38:56 10° 359° (N) 1,736 6.8 -14.1°
Sets 02:41:07 0° 5° (N) 2,623 8.0 -13.9°
